Location: Natural Bridges National Monument
(37.6093°N, 109.9767°W)
Time: 05:20:53
(UTC-07:00)

Amateur Radio Satellites - All Passes

Search period start: 26 February 2017 04:50
Search period end: 27 February 2017 04:50
Location: Natural Bridges National Monument, 37.6093°N, 109.9767°W

Satellite Date Start Highest point End Downlink Frequencies (MHz)
Time Altitude Azimuth
ITAMSAT 1 26 Feb 05:15:56 05:18:20 13° 299° (WNW) 05:20:45 435.822/435.867
BEESAT 3 26 Feb 05:16:53 05:19:53 22° 112° (ESE) 05:22:56 437.485
XW-2D 26 Feb 05:24:16 05:25:09 11° 91° (E) 05:26:03 145.860 - 145.880
XW-2B 26 Feb 05:28:45 05:30:17 12° 92° (E) 05:31:47 145.730 - 145.750
RS-15 26 Feb 05:29:43 05:35:32 15° 264° (W) 05:41:16 29.354- 29.394
XW-2C 26 Feb 05:36:42 05:39:03 16° 93° (E) 05:41:22 145.795 - 145.815
NUDT-PHONESAT 26 Feb 05:45:22 05:47:44 16° 93° (E) 05:50:05 437.300
SO-50 26 Feb 05:49:09 05:51:35 14° 44° (NE) 05:54:02 436.795
LilacSat-2 26 Feb 05:53:43 05:57:01 27° 96° (E) 06:00:16 437.200
BEESAT 2 26 Feb 05:56:54 06:00:06 24° 112° (ESE) 06:03:21 435.950
HO-68 26 Feb 06:18:18 06:19:06 10° 88° (E) 06:19:54 435.675
CUTE-I 26 Feb 06:27:58 06:33:17 59° 101° (E) 06:38:34 437.470
DOVE 4 26 Feb 06:28:07 06:32:55 82° 100° (E) 06:37:59 437.250
AO-7 26 Feb 06:30:11 06:34:17 15° 310° (NW) 06:38:22 .
ISS 26 Feb 06:37:29 06:39:53 19° 130° (SE) 06:42:18 437.550
XW-2A 26 Feb 06:44:07 06:45:56 14° 93° (E) 06:47:43 145.665 - 145.685
KAITUO 1B 26 Feb 06:44:14 06:48:01 82° 283° (WNW) 06:51:45 145.475/437.950
STRAND 1 26 Feb 06:49:45 06:54:52 76° 75° (ENE) 07:00:02 437.568
XW-2F 26 Feb 06:50:37 06:54:22 55° 285° (WNW) 06:58:03 145.980 - 146.000
BEESAT 3 26 Feb 06:53:57 06:57:20 28° 308° (NW) 07:00:46 437.485
XW-2D 26 Feb 06:55:56 06:59:35 44° 286° (WNW) 07:03:11 145.860 - 145.880
Tancredo 1 26 Feb 07:00:09 07:03:08 34° 134° (SE) 07:06:09 437.200
XW-2B 26 Feb 07:01:04 07:04:39 39° 287° (WNW) 07:08:11 145.730 - 145.750
XW-2C 26 Feb 07:09:55 07:13:17 30° 288° (WNW) 07:16:38 145.795 - 145.815
CUBEBUG 2 26 Feb 07:10:26 07:11:28 11° 89° (E) 07:12:30 437.445
NUDT-PHONESAT 26 Feb 07:18:26 07:21:42 28° 288° (WNW) 07:24:56 437.300
SO-50 26 Feb 07:28:04 07:32:32 70° 242° (WSW) 07:36:58 436.795
LilacSat-2 26 Feb 07:28:25 07:31:05 18° 291° (WNW) 07:33:44 437.200
BEESAT 2 26 Feb 07:34:25 07:37:46 26° 308° (NW) 07:41:09 435.950
SEEDS 26 Feb 07:35:21 07:38:58 28° 96° (E) 07:42:33 437.485
UWE-3 26 Feb 07:44:10 07:47:00 16° 92° (E) 07:49:48 435.000/436.395/437.385
HO-68 26 Feb 08:00:39 08:07:50 75° 104° (ESE) 08:14:58 435.675
ZACube-1 26 Feb 08:03:14 08:05:44 14° 91° (E) 08:08:10 437.345
DOVE 4 26 Feb 08:09:02 08:10:00 11° 296° (WNW) 08:10:59 437.250
CUTE-I 26 Feb 08:09:24 08:12:48 17° 297° (WNW) 08:16:12 437.470
O/OREOS (USA 219) 26 Feb 08:10:20 08:14:38 38° 64° (ENE) 08:18:54 437.305
ISS 26 Feb 08:13:02 08:16:09 39° 326° (NW) 08:19:17 437.550
CUTE 1.7 + AOD 2 26 Feb 08:15:11 08:19:20 59° 285° (WNW) 08:23:27 437.475
XW-2A 26 Feb 08:15:44 08:18:44 28° 288° (WNW) 08:21:43 145.665 - 145.685
PRISM 26 Feb 08:24:37 08:28:07 28° 70° (ENE) 08:31:37 437.425
STRAND 1 26 Feb 08:33:13 08:34:33 11° 270° (W) 08:35:54 437.568
Tancredo 1 26 Feb 08:36:44 08:39:28 24° 330° (NNW) 08:42:11 437.200
CUBEBUG 2 26 Feb 08:43:46 08:48:31 69° 284° (WNW) 08:53:11 437.445
AO-73 26 Feb 08:49:36 08:53:56 44° 98° (E) 08:58:09 145.935
UNISAT 6 26 Feb 08:53:30 08:57:11 25° 69° (ENE) 09:00:58 437.425
TIGRISAT 26 Feb 08:53:36 08:57:11 24° 68° (ENE) 09:00:50 435.000
Oscar 11 26 Feb 08:55:03 08:59:10 42° 98° (E) 09:03:15 .
AAUSAT CUBESAT 2 26 Feb 08:56:42 09:00:45 61° 285° (WNW) 09:04:48 437.432
SEEDS 26 Feb 09:11:21 09:14:28 21° 291° (WNW) 09:17:35 437.485
UWE-3 26 Feb 09:19:12 09:23:40 45° 287° (WNW) 09:28:01 435.000/436.395/437.385
ZACube-1 26 Feb 09:37:52 09:42:14 47° 287° (WNW) 09:46:31 437.345
FO-29 26 Feb 09:38:26 09:45:10 46° 68° (ENE) 09:52:28 435.910
YUBILEINY 26 Feb 09:47:53 09:56:00 43° 88° (E) 10:04:06 435.215
HO-68 26 Feb 09:49:53 09:54:47 20° 302° (WNW) 09:59:40 435.675
O/OREOS (USA 219) 26 Feb 09:50:33 09:53:42 18° 260° (W) 09:56:52 437.305
ISS 26 Feb 09:52:47 09:53:21 10° 344° (NNW) 09:53:54 437.550
PRISM 26 Feb 10:00:24 10:03:23 20° 265° (W) 10:06:23 437.425
POLYITAN 1 26 Feb 10:00:34 10:01:27 11° 64° (ENE) 10:02:22 437.675
QB50P2 26 Feb 10:02:41 10:04:25 12° 65° (ENE) 10:06:10 145.880/145.840
DELFI C3 26 Feb 10:19:49 10:23:41 58° 285° (WNW) 10:27:31 145.870
AO-73 26 Feb 10:26:57 10:29:45 16° 294° (WNW) 10:32:33 145.935
TIGRISAT 26 Feb 10:29:45 10:33:41 30° 264° (W) 10:37:43 435.000
UNISAT 6 26 Feb 10:29:56 10:33:46 28° 264° (W) 10:37:42 437.425
Oscar 11 26 Feb 10:32:22 10:34:55 16° 294° (WNW) 10:37:27 .
LO-87 26 Feb 10:43:01 10:46:04 25° 97° (E) 10:49:07 145.935 - 145.965
AIST 2D 26 Feb 10:46:29 10:49:58 57° 76° (ENE) 10:53:30 435.315
DUCHIFAT 1 26 Feb 11:02:36 11:06:36 45° 73° (ENE) 11:10:39 145.980
ESTCUBE 1 26 Feb 11:04:12 11:07:51 24° 96° (E) 11:11:29 437.505/2401.250
EO-79 26 Feb 11:14:33 11:18:45 78° 76° (ENE) 11:23:01 145.935-145.965
FO-29 26 Feb 11:23:59 11:30:15 34° 266° (W) 11:37:04 435.910
VELOX 1 26 Feb 11:25:56 11:27:53 13° 92° (E) 11:29:50 145.980
NANOSAT C BR1 26 Feb 11:30:49 11:35:00 73° 258° (WSW) 11:39:15 145.865
POLYITAN 1 26 Feb 11:32:28 11:36:40 64° 259° (W) 11:40:54 437.675
QB50P2 26 Feb 11:35:35 11:39:42 53° 259° (W) 11:43:54 145.880/145.840
YUBILEINY 26 Feb 11:44:44 11:52:46 38° 286° (WNW) 12:00:51 435.215
Gurwin Techsat 1B 26 Feb 11:54:32 11:55:39 11° 60° (ENE) 11:56:46 435.225
BUGSAT 1 26 Feb 11:54:52 11:58:51 61° 74° (ENE) 12:02:54 437.445
LO-87 26 Feb 12:16:57 12:19:19 17° 291° (WNW) 12:21:42 145.935 - 145.965
Oscar 19 26 Feb 12:34:55 12:39:50 48° 72° (ENE) 12:44:46 437.125/150
50 SAT 26 Feb 12:39:23 12:42:51 65° 102° (ESE) 12:46:17 437.505
DUCHIFAT 1 26 Feb 12:40:30 12:42:30 13° 268° (W) 12:44:30 145.980
ESTCUBE 1 26 Feb 12:40:48 12:44:35 28° 290° (WNW) 12:48:22 437.505/2401.250
DX 1 26 Feb 12:47:48 12:52:00 46° 100° (E) 12:56:12 434.975-435.025
UKube-1 26 Feb 12:57:30 13:01:35 41° 99° (E) 13:05:40 .
SPROUT 26 Feb 12:59:05 13:03:21 63° 285° (WNW) 13:07:36 437.525
VELOX 1 26 Feb 13:00:19 13:04:36 51° 287° (WNW) 13:08:53 145.980
ISS 26 Feb 13:06:30 13:08:46 17° 25° (NNE) 13:11:00 437.550
AO-85 26 Feb 13:10:34 13:14:29 74° 60° (ENE) 13:18:28 145.980
ITAMSAT 1 26 Feb 13:15:22 13:16:47 11° 60° (ENE) 13:18:13 435.822/435.867
Tancredo 1 26 Feb 13:28:51 13:31:32 24° 30° (NNE) 13:34:13 437.200
Gurwin Techsat 1B 26 Feb 13:29:26 13:34:45 88° 77° (ENE) 13:40:06 435.225
AO-7 26 Feb 13:40:29 13:47:20 29° 58° (ENE) 13:54:09 .
Oscar 19 26 Feb 14:15:54 14:19:22 18° 267° (W) 14:22:51 437.125/150
BEESAT 2 26 Feb 14:17:42 14:18:45 11° 43° (NE) 14:19:48 435.950
DX 1 26 Feb 14:25:20 14:27:47 15° 295° (WNW) 14:30:13 434.975-435.025
UKube-1 26 Feb 14:34:37 14:37:15 16° 294° (WNW) 14:39:53 .
ISS 26 Feb 14:42:15 14:45:31 69° 222° (SW) 14:48:46 437.550
ITAMSAT 1 26 Feb 14:50:15 14:55:27 88° 253° (WSW) 15:00:43 435.822/435.867
PCSat 26 Feb 15:04:54 15:09:17 26° 107° (ESE) 15:13:42 145.827
Tancredo 1 26 Feb 15:04:54 15:07:52 34° 226° (SW) 15:10:48 437.200
ITUPSAT 1 26 Feb 15:06:35 15:11:23 69° 102° (ESE) 15:16:08 437.325
BEESAT 3 26 Feb 15:11:45 15:15:47 88° 60° (ENE) 15:19:47 437.485
BEESAT 26 Feb 15:12:16 15:17:04 81° 102° (ESE) 15:21:49 436.000
MOZHAYETS 4 26 Feb 15:21:33 15:25:47 35° 97° (E) 15:29:58
RS-15 26 Feb 15:25:07 15:33:05 21° 99° (E) 15:41:10 29.354- 29.394
AO-7 26 Feb 15:31:15 15:39:30 62° 256° (WSW) 15:47:48 .
KKS-1 26 Feb 15:43:59 15:46:23 14° 93° (E) 15:48:47 437.445
BEESAT 2 26 Feb 15:53:00 15:57:04 81° 241° (WSW) 16:01:05 435.950
NO-84 26 Feb 15:56:23 15:59:08 30° 127° (SE) 16:02:06 435.350 FM
STARS 26 Feb 16:14:23 16:16:30 13° 92° (E) 16:18:37 437.465
CUBESAT XI-V 26 Feb 16:24:50 16:28:41 26° 96° (E) 16:32:29 437.345
LilacSat-2 26 Feb 16:35:40 16:36:57 11° 66° (ENE) 16:38:13 437.200
ITUPSAT 1 26 Feb 16:46:40 16:48:35 12° 298° (WNW) 16:50:30 437.325
PCSat 26 Feb 16:47:22 16:52:26 40° 304° (WNW) 16:57:32 145.827
BEESAT 26 Feb 16:53:20 16:54:07 10° 299° (WNW) 16:54:55 436.000
MOZHAYETS 4 26 Feb 16:59:18 17:02:40 20° 293° (WNW) 17:06:00
KKS-1 26 Feb 17:18:52 17:23:10 47° 287° (WNW) 17:27:27 437.445
KAITUO 1B 26 Feb 17:22:23 17:25:47 32° 72° (ENE) 17:29:13 145.475/437.950
XW-2F 26 Feb 17:29:15 17:32:56 48° 75° (ENE) 17:36:40 145.980 - 146.000
RS-15 26 Feb 17:31:50 17:43:44 89° 120° (ESE) 17:56:10 29.354- 29.394
DOVE 4 26 Feb 17:32:12 17:36:16 61° 75° (ENE) 17:40:24 437.250
NO-84 26 Feb 17:34:13 17:36:49 22° 326° (NNW) 17:39:37 435.350 FM
XW-2D 26 Feb 17:34:42 17:38:29 61° 75° (ENE) 17:42:19 145.860 - 145.880
XW-2B 26 Feb 17:39:45 17:43:34 69° 76° (ENE) 17:47:25 145.730 - 145.750
M-CUBED/EXP-1 PRIME 26 Feb 17:46:21 17:50:13 64° 106° (ESE) 17:54:22 437.505
CUTE-I 26 Feb 17:47:47 17:53:06 80° 75° (ENE) 17:58:29 437.470
XW-2C 26 Feb 17:48:25 17:52:16 88° 252° (WSW) 17:56:09 145.795 - 145.815
STARS 26 Feb 17:48:48 17:53:06 50° 287° (WNW) 17:57:23 437.465
NUDT-PHONESAT 26 Feb 17:55:05 17:58:50 90° 130° (SE) 18:02:39 437.300
CUBESAT XI-V 26 Feb 18:02:06 18:05:58 27° 290° (WNW) 18:09:49 437.345
LilacSat-2 26 Feb 18:07:02 18:10:46 47° 261° (W) 18:14:32 437.200
SEEDS 26 Feb 18:25:56 18:28:36 16° 67° (ENE) 18:31:14 437.485
HO-68 26 Feb 18:27:01 18:33:45 46° 67° (ENE) 18:40:30 435.675
UWE-3 26 Feb 18:41:12 18:42:08 11° 62° (ENE) 18:43:04 435.000/436.395/437.385
XW-2A 26 Feb 18:44:35 18:47:56 62° 76° (ENE) 18:51:19 145.665 - 145.685
KAITUO 1B 26 Feb 18:57:42 18:59:53 15° 267° (W) 19:02:04 145.475/437.950
STRAND 1 26 Feb 19:02:39 19:07:08 30° 97° (E) 19:11:36 437.568
CUTE 1.7 + AOD 2 26 Feb 19:05:17 19:09:32 73° 77° (ENE) 19:13:49 437.475
M-CUBED/EXP-1 PRIME 26 Feb 19:23:59 19:24:16 10° 299° (WNW) 19:24:34 437.505
CUTE-I 26 Feb 19:32:18 19:33:42 11° 270° (W) 19:35:06 437.470
CUBEBUG 2 26 Feb 19:39:22 19:43:47 76° 76° (ENE) 19:48:23 437.445
AO-73 26 Feb 19:43:07 19:46:52 27° 70° (ENE) 19:50:42 145.935
AAUSAT CUBESAT 2 26 Feb 19:44:21 19:48:27 64° 76° (ENE) 19:52:35 437.432
RS-15 26 Feb 19:47:40 19:58:02 31° 324° (NW) 20:08:39 29.354- 29.394
Oscar 11 26 Feb 19:48:03 19:51:41 26° 70° (ENE) 19:55:19 .
SEEDS 26 Feb 20:00:00 20:03:57 38° 262° (W) 20:07:54 437.485
YUBILEINY 26 Feb 20:01:28 20:07:08 18° 65° (ENE) 20:12:46 435.215
UWE-3 26 Feb 20:13:27 20:17:53 73° 259° (W) 20:22:28 435.000/436.395/437.385
HO-68 26 Feb 20:15:21 20:21:34 31° 263° (W) 20:27:49 435.675
ZACube-1 26 Feb 20:30:51 20:35:18 79° 258° (WSW) 20:39:52 437.345
STRAND 1 26 Feb 20:41:47 20:46:13 30° 292° (WNW) 20:50:37 437.568
JUGNU 26 Feb 20:48:56 20:50:29 11° 171° (S) 20:52:00 437.505
DELFI C3 26 Feb 21:02:58 21:06:50 56° 75° (ENE) 21:10:42 145.870
AO-73 26 Feb 21:19:21 21:23:01 25° 265° (W) 21:26:46 145.935
Oscar 11 26 Feb 21:24:11 21:27:43 24° 265° (W) 21:31:18 .
SO-50 26 Feb 21:39:57 21:44:34 59° 117° (ESE) 21:49:09 436.795
PRISM 26 Feb 21:42:10 21:46:12 60° 101° (E) 21:50:15 437.425
YUBILEINY 26 Feb 21:56:16 22:05:02 85° 264° (W) 22:13:43 435.215
ESTCUBE 1 26 Feb 22:02:21 22:05:29 19° 67° (ENE) 22:08:37 437.505/2401.250
RS-15 26 Feb 22:08:57 22:16:26 17° 359° (N) 22:23:54 29.354- 29.394
O/OREOS (USA 219) 26 Feb 22:20:24 22:24:49 64° 108° (ESE) 22:29:16 437.305
TIGRISAT 26 Feb 22:22:22 22:27:03 66° 101° (E) 22:31:38 435.000
UNISAT 6 26 Feb 22:22:34 22:27:17 72° 102° (ESE) 22:31:53 437.425
NO-84 26 Feb 22:31:39 22:34:25 17° 31° (NNE) 22:37:18 435.350 FM
FO-29 26 Feb 22:35:30 22:42:43 48° 97° (E) 22:49:11 435.910
JUGNU 26 Feb 22:36:01 22:38:35 13° 182° (S) 22:41:10 437.505
LO-87 26 Feb 22:49:59 22:53:26 54° 260° (W) 22:56:55 145.935 - 145.965
EO-79 26 Feb 23:02:31 23:04:55 15° 93° (E) 23:07:16 145.935-145.965
50 SAT 26 Feb 23:12:18 23:14:46 18° 70° (ENE) 23:17:15 437.505
NANOSAT C BR1 26 Feb 23:17:44 23:20:54 20° 95° (E) 23:24:03 145.865
POLYITAN 1 26 Feb 23:19:41 23:23:09 23° 95° (E) 23:26:35 437.675
PRISM 26 Feb 23:20:26 23:20:57 10° 296° (WNW) 23:21:28 437.425
SO-50 26 Feb 23:22:18 23:25:23 17° 314° (NW) 23:28:28 436.795
QB50P2 26 Feb 23:22:34 23:26:14 27° 96° (E) 23:29:53 145.880/145.840
ESTCUBE 1 26 Feb 23:37:48 23:41:59 37° 262° (W) 23:46:12 437.505/2401.250
SRMSAT 26 Feb 23:39:00 23:41:15 12° 173° (S) 23:43:30 437.500
BUGSAT 1 26 Feb 23:41:11 23:41:57 10° 91° (E) 23:42:44 437.445
DX 1 26 Feb 23:41:32 23:45:20 31° 70° (ENE) 23:49:09 434.975-435.025
AIST 2D 26 Feb 23:46:35 23:50:10 84° 283° (WNW) 23:53:41 435.315
SPROUT 26 Feb 23:50:04 23:54:18 74° 75° (ENE) 23:58:34 437.525
UKube-1 26 Feb 23:50:14 23:53:53 28° 69° (ENE) 23:57:32 .
PCSat 26 Feb 23:54:41 23:58:06 17° 47° (NE) 00:01:29 145.827
VELOX 1 26 Feb 23:55:11 23:59:32 76° 257° (WSW) 00:03:57 145.980
YUBILEINY 26 Feb 23:56:18 00:00:23 14° 283° (WNW) 00:04:29 435.215
TIGRISAT 27 Feb 00:01:12 00:03:06 12° 297° (WNW) 00:04:59 435.000
UNISAT 6 27 Feb 00:01:51 00:03:19 11° 297° (WNW) 00:04:46 437.425
O/OREOS (USA 219) 27 Feb 00:02:48 00:04:40 12° 305° (NW) 00:06:34 437.305
NO-84 27 Feb 00:08:21 00:12:32 84° 228° (SW) 00:16:55 435.350 FM
FO-29 27 Feb 00:20:54 00:27:20 32° 296° (WNW) 00:33:17 435.910
DUCHIFAT 1 27 Feb 00:23:41 00:27:57 73° 284° (WNW) 00:32:11 145.980
RS-15 27 Feb 00:24:32 00:34:58 30° 35° (NE) 00:45:05 29.354- 29.394
EO-79 27 Feb 00:36:47 00:40:50 42° 287° (WNW) 00:44:52 145.935-145.965
50 SAT 27 Feb 00:45:00 00:47:44 21° 264° (W) 00:50:29 437.505
Oscar 19 27 Feb 00:49:14 00:52:51 19° 94° (E) 00:56:28 437.125/150
NANOSAT C BR1 27 Feb 00:52:52 00:56:38 30° 289° (WNW) 01:00:21 145.865
POLYITAN 1 27 Feb 00:55:15 00:58:52 27° 290° (WNW) 01:02:27 437.675
QB50P2 27 Feb 00:58:29 01:01:52 23° 291° (WNW) 01:05:15 145.880/145.840
BUGSAT 1 27 Feb 01:13:27 01:17:38 58° 285° (WNW) 01:21:48 437.445
DX 1 27 Feb 01:18:20 01:21:32 20° 265° (W) 01:24:44 434.975-435.025
UKube-1 27 Feb 01:26:29 01:29:52 22° 264° (W) 01:33:16 .
SRMSAT 27 Feb 01:26:50 01:29:34 13° 183° (S) 01:32:18 437.500
PCSat 27 Feb 01:36:39 01:42:06 76° 244° (WSW) 01:47:29 145.827
Gurwin Techsat 1B 27 Feb 01:47:47 01:52:48 40° 99° (E) 01:57:46 435.225
ITUPSAT 1 27 Feb 02:11:08 02:15:53 64° 74° (ENE) 02:20:40 437.325
BEESAT 27 Feb 02:16:26 02:21:12 75° 74° (ENE) 02:26:00 436.000
MOZHAYETS 4 27 Feb 02:21:33 02:25:29 28° 69° (ENE) 02:29:26
Oscar 19 27 Feb 02:27:29 02:32:21 44° 289° (WNW) 02:37:11 437.125/150
RS-15 27 Feb 02:37:01 02:49:24 88° 60° (ENE) 03:01:11 29.354- 29.394
KKS-1 27 Feb 02:41:43 02:42:57 11° 63° (ENE) 02:44:11 437.445
ITAMSAT 1 27 Feb 03:05:16 03:10:08 38° 98° (E) 03:14:58 435.822/435.867
AO-85 27 Feb 03:22:50 03:27:09 39° 115° (ESE) 03:31:11 145.980
CUBESAT XI-V 27 Feb 03:26:33 03:30:04 21° 68° (ENE) 03:33:33 437.345
Gurwin Techsat 1B 27 Feb 03:28:19 03:32:28 24° 294° (WNW) 03:36:37 435.225
AO-7 27 Feb 03:35:00 03:43:05 52° 102° (ESE) 03:51:03 .
ITUPSAT 1 27 Feb 03:52:21 03:54:06 12° 269° (W) 03:55:51 437.325
MOZHAYETS 4 27 Feb 03:58:41 04:02:34 26° 264° (W) 04:06:27
KKS-1 27 Feb 04:14:31 04:18:54 66° 259° (WSW) 04:23:20 437.445
M-CUBED/EXP-1 PRIME 27 Feb 04:31:27 04:34:38 51° 71° (ENE) 04:37:49 437.505
